This is the latest recevied weather packets stored in our database for station/object HS3UAA-1. If no packets are shown the sender has not sent any weather packets the latest 10 day(s).
| Time | Temp. | Humidity | Pressure | Rain* | Wind** | Luminosity | Snow |
|---|---|---|---|---|---|---|---|
| 1788544642 | 34.44° C | 44% | 996 hPa | - | - | 0 W/m² | - |
| 1788544320 | 34.44° C | 44% | 996 hPa | - | - | 0 W/m² | - |
| 1788543998 | 34.44° C | 43% | 996 hPa | - | - | 0 W/m² | - |
| 1788543676 | 34.44° C | 44% | 997 hPa | - | - | 0 W/m² | - |
| 1788543225 | 35° C | 42% | 997 hPa | - | - | 0 W/m² | - |
| 1788542903 | 34.44° C | 43% | 997 hPa | - | - | 0 W/m² | - |
| 1788542581 | 35° C | 43% | 997 hPa | - | - | 0 W/m² | - |
| 1788542259 | 35° C | 42% | 996 hPa | - | - | 0 W/m² | - |
| 1788541937 | 34.44° C | 43% | 996 hPa | - | - | 0 W/m² | - |
| 1788541615 | 34.44° C | 44% | 996 hPa | - | - | 0 W/m² | - |
| 1788541293 | 34.44° C | 43% | 997 hPa | - | - | 0 W/m² | - |
| 1788540775 | 35° C | 42% | 997 hPa | - | - | 0 W/m² | - |
| 1788540453 | 35.56° C | 40% | 997 hPa | - | - | 0 W/m² | - |
| 1788540131 | 34.44° C | 42% | 997 hPa | - | - | 0 W/m² | - |
| 1788539809 | 35° C | 41% | 997 hPa | - | - | 0 W/m² | - |
| 1788539487 | 35° C | 41% | 997 hPa | - | - | 0 W/m² | - |
| 1788539165 | 35° C | 42% | 997 hPa | - | - | 0 W/m² | - |
| 1788538843 | 35° C | 42% | 997 hPa | - | - | 0 W/m² | - |
| 1788538521 | 34.44° C | 42% | 997 hPa | - | - | 0 W/m² | - |
| 1788538199 | 36.11° C | 39% | 997 hPa | - | - | 0 W/m² | - |
| 1788537877 | 34.44° C | 42% | 997 hPa | - | - | 0 W/m² | - |
| 1788537555 | 35° C | 41% | 997 hPa | - | - | 0 W/m² | - |
| 1788537031 | 35° C | 41% | 997 hPa | - | - | 0 W/m² | - |
| 1788536709 | 35° C | 41% | 997 hPa | - | - | 0 W/m² | - |
| 1788536387 | 35.56° C | 40% | 997 hPa | - | - | 0 W/m² | - |
* Rain since midnight (hover to see other rain measurements)
** Current wind speed in m/s (hover to see current wind gust speed)